Flag for Germany

Past Weather in Wunstorf, Lower Saxony, Germany — Yesterday and Last 2 Weeks

Now
52 °F

Cool.


Feels Like: 49 °F
Forecast: 67 / 53 °F
Wind: 7 mph from West

Location: Wunstorf Airport

Current Time: Jul 7, 2020 at 5:19:36 am

Latest Report: Jul 7, 2020 at 4:20 am


Visibility: 3 mi

Pressure: 30.09 "Hg

Humidity: 88%

Dew Point: 48 °F

Location of WunstorfLocation

Past Weather in Wunstorf — Graph

°F

Wunstorf Temperature Yesterday

Maximum temperature yesterday: 64 °F (at 12:20 am)
Minimum temperature yesterday: 54 °F (at 10:58 am)
Average temperature yesterday: 59 °F

High & Low Weather Summary for the Past Weeks

 TemperatureHumidityPressure
High86 °F (Jun 26, 2:20 pm)100% (Jul 1, 8:20 am)30.30 "Hg (Jul 1, 8:20 am)
Low54 °F (Jun 23, 4:20 am)26% (Jun 23, 5:51 pm)29.68 "Hg (Jul 1, 2:20 am)
Average67 °F67%29.94 "Hg
* Reported Jun 22 3:20 am — Jul 7 3:20 am, Wunstorf. Weather by CustomWeather, © 2020

Note: Actual official high and low records may vary slightly from our data, if they occured in-between our weather recording intervals... More about our weather records

Wunstorf Weather History for the Previous 24 Hours

Scroll right to see more
 ConditionsComfort  
Time TempWeatherWind HumidityBarometerVisibility
3:20 am
Tue, Jul 7
54 °FCool.8 mph88%30.09 "Hg3 mi
2:20 am54 °FCool.9 mph88%30.09 "Hg3 mi
1:20 am55 °FCool.9 mph88%30.09 "Hg3 mi
12:20 am57 °FCool.12 mph82%30.07 "Hg3 mi
11:20 pm
Mon, Jul 6
57 °FCool.8 mph82%30.07 "Hg3 mi
10:20 pm55 °FCool.14 mph88%30.07 "Hg3 mi
9:20 pm57 °FCool.8 mph88%30.04 "Hg2 mi
8:20 pm59 °FCool.13 mph72%30.01 "Hg3 mi
7:50 pm59 °FPassing clouds.15 mph77%30.01 "HgN/A
7:20 pm59 °FScattered showers. Passing clouds.14 mph77%29.98 "HgN/A
6:20 pm59 °FScattered showers. Passing clouds.14 mph82%29.98 "HgN/A
5:39 pm55 °FScattered showers. Partly sunny.13 mph88%29.95 "Hg5 mi
5:29 pm55 °FLots of rain. Partly sunny.18 mph82%29.98 "Hg3 mi
4:20 pm59 °FScattered showers. Scattered clouds.24 mph68%29.92 "Hg5 mi
3:20 pm57 °FScattered showers. Scattered clouds.13 mph88%29.92 "HgN/A
3:00 pm57 °FRain showers. Partly sunny.22 mph77%29.92 "Hg4 mi
2:36 pm61 °FRain showers. Scattered clouds.20 mph63%29.89 "Hg4 mi
1:57 pm63 °FScattered clouds.20 mph59%29.89 "HgN/A
1:20 pm61 °FPartly sunny.16 mph77%29.89 "HgN/A
1:10 pm59 °FSprinkles. Partly sunny.20 mph77%29.89 "HgN/A
12:20 pm57 °FBroken clouds.12 mph88%29.86 "Hg5 mi
12:01 pm59 °FSprinkles. Partly sunny.15 mph77%29.86 "Hg4 mi
11:20 am54 °FSprinkles. Partly sunny.14 mph88%29.86 "Hg5 mi
11:02 am54 °FSprinkles. Partly sunny.22 mph88%29.86 "Hg5 mi
10:58 am54 °FSprinkles. Partly sunny.23 mph88%29.86 "Hg3 mi
10:20 am61 °FBroken clouds.18 mph63%29.83 "HgN/A
9:20 am61 °FBroken clouds.18 mph63%29.83 "HgN/A
8:20 am61 °FScattered clouds.14 mph68%29.80 "HgN/A
7:20 am59 °FBroken clouds.15 mph72%29.80 "HgN/A
6:20 am59 °FScattered showers. Partly sunny.13 mph72%29.80 "HgN/A
5:20 am59 °FCool.14 mph68%29.77 "Hg3 mi
Weather by CustomWeather, © 2020

See weather overview